This demonstration page uses our WeatherBlox Daily Observations layout. Learn more.

Left ArrowRight Arrow

38.88101, -77.10428

Hourly Observations for January 30, 2017

Temp ( °F °C ) Dew Point ( °F °C ) Humidity (%) Winds ( mph kmh ) Pressure ( in mb ) Visibility ( mi km ) Precip ( " mm )
12:52 am 00:52 Cloudy 38 3.3 31 -0.6 76 76 NE 8 13 29.75 1007 10 16 N/A
1:52 am 01:52 Cloudy with Light Snow 38 3.3 28 -2.2 68 68 NNE 10 17 29.74 1007 9 14 N/A
2:52 am 02:52 Cloudy with Light Snow 36 2.2 26 -3.3 67 67 NNW 16 26 29.76 1008 4 6 N/A
2:57 am 02:57 Cloudy with Light Snow 36 2.2 27 -2.8 70 70 NW 15 24 29.77 1008 3 4 N/A
3:05 am 03:05 Cloudy with Light Snow 34 1.1 29 -1.7 82 82 NW 16 26 29.77 1008 2 2 N/A
3:17 am 03:17 Mostly Cloudy with Light Snow 33 0.6 30 -1.1 89 89 NW 14 22 29.77 1008 1 1 0.01 0.25
3:20 am 03:20 Mostly Cloudy with Snow 34 1 30 -1 87 87 NNW 13 20 29.77 1008 0 0 N/A
3:31 am 03:31 Mostly Cloudy with Heavy Snow 33 0.6 32 undefined 96 96 NW 6 9 29.77 1008 0 0 0.03 0.76
3:42 am 03:42 Mostly Cloudy with Snow 32 undefined 30 -1 93 93 NNW 7 11 29.80 1009 1 1 N/A
3:50 am 03:50 Cloudy with Light Snow 32 undefined 30 -1 93 93 NW 8 13 29.80 1009 1 1 N/A
3:52 am 03:52 Cloudy with Light Snow 32 undefined 31 -0.6 96 96 NNW 8 13 29.78 1009 1 1 0.05 1.27
4:09 am 04:09 Cloudy with Light Snow 33 0.6 31 -0.6 92 92 NW 8 13 29.80 1009 2 3 0.01 0.25
4:52 am 04:52 Cloudy with Light Snow 32 undefined 31 -0.6 96 96 NNW 7 11 29.79 1009 3 4 0.01 0.25
5:03 am 05:03 Cloudy with Light Snow 34 1 30 -1 87 87 NW 8 13 29.80 1009 3 5 N/A
5:52 am 05:52 Cloudy with Light Snow 32 undefined 30 -1.1 92 92 NNW 7 11 29.80 1009 9 14 N/A
6:52 am 06:52 Cloudy with Light Snow 33 0.6 29 -1.7 85 85 NW 8 13 29.81 1010 9 14 N/A
7:52 am 07:52 Mostly Cloudy 33 0.6 27 -2.8 78 78 NW 9 15 29.83 1010 10 16 N/A
8:52 am 08:52 Mostly Cloudy 34 1.1 27 -2.8 76 76 WNW 8 13 29.87 1011 10 16 N/A
9:52 am 09:52 Cloudy 34 1.1 25 -3.9 70 70 WNW 15 24 29.90 1013 10 16 N/A
10:52 am 10:52 Cloudy with Light Snow 34 1.1 27 -2.8 76 76 WNW 9 15 29.91 1013 5 8 N/A
11:15 am 11:15 Cloudy with Light Snow 34 1.1 27 -2.8 76 76 W 13 20 29.91 1013 6 10 N/A
11:28 am 11:28 Cloudy 36 2 25 -4 65 65 WNW 8 13 29.91 1013 10 16 N/A
11:52 am 11:52 Cloudy 36 2.2 24 -4.4 62 62 W 9 15 29.90 1013 10 16 0.01 0.25
12:52 pm 12:52 Mostly Cloudy 38 3.3 20 -6.7 48 48 W 18 30 29.89 1012 10 16 N/A
1:52 pm 13:52 Cloudy 38 3.3 17 -8.3 43 43 W 14 22 29.88 1012 10 16 N/A
2:03 pm 14:03 Windy with Snow Likely 36 2 19 -7 52 52 NW 20 31 29.88 1012 6 10 N/A
2:52 pm 14:52 Mostly Cloudy 35 1.7 23 -5 61 61 VRB 7 11 29.91 1013 10 16 N/A
3:52 pm 15:52 Mostly Cloudy 36 2.2 18 -7.8 48 48 NW 13 20 29.93 1014 10 16 N/A
4:52 pm 16:52 Partly Cloudy 37 2.8 11 -11.7 34 34 WNW 13 20 29.95 1014 10 16 N/A
5:52 pm 17:52 Partly Cloudy 35 1.7 12 -11.1 38 38 W 12 19 29.98 1015 10 16 N/A
6:52 pm 18:52 Partly Cloudy 34 1.1 12 -11.1 40 40 W 9 15 30.02 1017 10 16 N/A
7:52 pm 19:52 Mostly Cloudy 34 1.1 13 -10.6 42 42 WNW 18 30 30.05 1018 10 16 N/A
8:52 pm 20:52 Cloudy 34 1.1 14 -10 44 44 WNW 12 19 30.06 1018 10 16 N/A
9:52 pm 21:52 Partly Cloudy 32 undefined 14 -10 47 47 W 6 9 30.07 1018 10 16 N/A
10:52 pm 22:52 Mostly Clear 32 undefined 13 -10.6 45 45 W 5 7 30.04 1017 10 16 N/A
11:52 pm 23:52 Clear 32 undefined 14 -10 47 47 N N/A 30.02 1017 10 16 N/A

Powered by AerisWeather